TimeCDT,TemperatureF,Dew PointF,Humidity,Sea Level PressureIn,VisibilityMPH,Wind Direction,Wind SpeedMPH,Gust SpeedMPH,PrecipitationIn,Events,Conditions,WindDirDegrees,DateUTC
12:15 AM,33.8,31.8,92,30.11,7.0,West,9.2,-,N/A,Snow,Light Snow,280,2013-03-26 05:15:00
12:35 AM,33.8,31.6,92,30.12,7.0,West,11.5,-,N/A,Snow,Light Snow,280,2013-03-26 05:35:00
12:55 AM,33.8,31.5,91,30.12,10.0,West,9.2,-,N/A,Snow,Light Snow,280,2013-03-26 05:55:00
1:15 AM,33.8,31.1,90,30.12,10.0,West,9.2,-,N/A,,Overcast,280,2013-03-26 06:15:00
1:35 AM,33.6,30.7,89,30.13,10.0,WNW,10.4,-,N/A,,Overcast,290,2013-03-26 06:35:00
1:55 AM,33.4,30.6,89,30.13,10.0,West,10.4,-,N/A,,Overcast,280,2013-03-26 06:55:00
2:15 AM,33.6,30.0,87,30.13,10.0,West,9.2,-,N/A,,Overcast,280,2013-03-26 07:15:00
2:35 AM,33.8,29.7,85,30.13,10.0,West,9.2,-,N/A,,Overcast,280,2013-03-26 07:35:00
2:55 AM,33.4,29.5,85,30.13,10.0,West,6.9,-,N/A,,Overcast,280,2013-03-26 07:55:00
3:15 AM,33.6,29.1,84,30.13,10.0,West,8.1,-,N/A,,Overcast,280,2013-03-26 08:15:00
3:35 AM,33.4,29.1,84,30.13,10.0,West,9.2,-,N/A,,Overcast,280,2013-03-26 08:35:00
3:55 AM,33.4,28.9,84,30.13,10.0,West,8.1,-,N/A,,Overcast,280,2013-03-26 08:55:00
4:15 AM,33.3,28.9,84,30.14,10.0,West,6.9,-,N/A,,Overcast,280,2013-03-26 09:15:00
4:35 AM,33.3,28.8,84,30.14,10.0,West,6.9,-,N/A,,Overcast,270,2013-03-26 09:35:00
4:55 AM,33.3,28.4,82,30.14,10.0,WNW,5.8,-,N/A,,Overcast,290,2013-03-26 09:55:00
5:15 AM,33.4,28.4,82,30.15,10.0,WNW,6.9,-,N/A,,Overcast,290,2013-03-26 10:15:00
5:55 AM,33.4,28.6,82,30.16,10.0,West,9.2,-,N/A,,Overcast,280,2013-03-26 10:55:00
6:15 AM,33.4,28.8,83,30.17,10.0,West,9.2,-,N/A,,Overcast,280,2013-03-26 11:15:00
6:35 AM,33.4,28.9,84,30.18,10.0,West,8.1,-,N/A,,Overcast,280,2013-03-26 11:35:00
6:55 AM,33.4,28.9,84,30.18,10.0,West,9.2,-,N/A,,Overcast,280,2013-03-26 11:55:00
7:15 AM,33.4,29.1,84,30.19,10.0,West,8.1,-,N/A,,Overcast,280,2013-03-26 12:15:00
7:35 AM,33.8,29.3,84,30.20,10.0,West,8.1,-,N/A,,Overcast,280,2013-03-26 12:35:00
7:55 AM,34.0,29.1,82,30.21,10.0,WNW,9.2,-,N/A,,Overcast,290,2013-03-26 12:55:00
8:15 AM,34.2,29.3,82,30.22,10.0,WNW,6.9,-,N/A,,Overcast,290,2013-03-26 13:15:00
8:35 AM,34.7,29.3,81,30.23,10.0,WNW,6.9,-,N/A,,Overcast,290,2013-03-26 13:35:00
8:55 AM,35.2,29.8,81,30.23,10.0,West,8.1,-,N/A,,Overcast,280,2013-03-26 13:55:00
9:15 AM,36.1,30.2,79,30.23,10.0,WNW,11.5,-,N/A,,Overcast,290,2013-03-26 14:15:00
9:35 AM,36.7,30.2,77,30.23,10.0,WNW,9.2,-,N/A,,Overcast,300,2013-03-26 14:35:00
9:55 AM,37.9,31.3,77,30.24,10.0,NW,10.4,-,N/A,,Overcast,310,2013-03-26 14:55:00
10:15 AM,37.9,30.4,74,30.24,10.0,WNW,11.5,-,N/A,,Overcast,290,2013-03-26 15:15:00
10:55 AM,39.2,31.3,73,30.25,10.0,WNW,11.5,-,N/A,,Overcast,290,2013-03-26 15:55:00
11:15 AM,39.9,31.1,71,30.26,10.0,WNW,11.5,-,N/A,,Overcast,290,2013-03-26 16:15:00
11:35 AM,40.3,31.5,71,30.26,10.0,WNW,13.8,-,N/A,,Overcast,300,2013-03-26 16:35:00
11:55 AM,-9999,-9999,N/A,-9999,-9999.0,North,-9999.0,-,N/A,,Unknown,0,2013-03-26 16:55:00
12:15 PM,40.8,31.6,70,30.26,10.0,WNW,12.7,-,N/A,,Overcast,290,2013-03-26 17:15:00
12:35 PM,41.7,31.5,67,30.26,10.0,West,11.5,-,N/A,,Overcast,280,2013-03-26 17:35:00
12:55 PM,41.9,31.1,66,30.26,10.0,WNW,15.0,-,N/A,,Overcast,300,2013-03-26 17:55:00
1:15 PM,43.2,30.9,62,30.26,10.0,West,17.3,20.7,N/A,,Mostly Cloudy,280,2013-03-26 18:15:00
1:35 PM,43.0,30.6,62,30.26,10.0,WNW,13.8,20.7,N/A,,Scattered Clouds,290,2013-03-26 18:35:00
1:55 PM,42.3,30.4,63,30.26,10.0,West,13.8,19.6,N/A,,Mostly Cloudy,280,2013-03-26 18:55:00
2:15 PM,41.5,29.3,62,30.26,10.0,WNW,12.7,-,N/A,,Overcast,290,2013-03-26 19:15:00
2:35 PM,41.5,29.5,62,30.26,10.0,WNW,11.5,-,N/A,,Overcast,290,2013-03-26 19:35:00
2:55 PM,41.0,27.5,59,30.26,10.0,WNW,12.7,-,N/A,,Overcast,300,2013-03-26 19:55:00
3:15 PM,41.0,27.1,58,30.26,10.0,WNW,11.5,-,N/A,,Overcast,300,2013-03-26 20:15:00
3:35 PM,41.0,27.7,59,30.26,10.0,WNW,13.8,-,N/A,,Overcast,290,2013-03-26 20:35:00
3:55 PM,40.8,27.9,60,30.27,10.0,West,12.7,17.3,N/A,,Overcast,280,2013-03-26 20:55:00
4:15 PM,41.0,26.4,56,30.27,10.0,WNW,13.8,21.9,N/A,,Overcast,300,2013-03-26 21:15:00
4:35 PM,42.1,25.9,53,30.27,10.0,West,15.0,-,N/A,,Overcast,280,2013-03-26 21:35:00
4:55 PM,41.7,25.7,53,30.27,10.0,West,12.7,-,N/A,,Mostly Cloudy,280,2013-03-26 21:55:00
5:15 PM,40.3,24.8,54,30.27,10.0,West,11.5,-,N/A,,Mostly Cloudy,280,2013-03-26 22:15:00
5:35 PM,40.1,24.4,54,30.29,10.0,WNW,11.5,-,N/A,,Overcast,290,2013-03-26 22:35:00
5:55 PM,39.7,25.0,56,30.29,10.0,West,10.4,-,N/A,,Overcast,280,2013-03-26 22:55:00
6:15 PM,39.4,25.7,58,30.29,10.0,West,11.5,-,N/A,,Overcast,280,2013-03-26 23:15:00
6:35 PM,38.8,25.3,58,30.30,10.0,West,13.8,-,N/A,,Overcast,260,2013-03-26 23:35:00
6:55 PM,38.3,24.3,57,30.31,10.0,West,13.8,-,N/A,,Overcast,260,2013-03-26 23:55:00
7:15 PM,37.2,25.9,64,30.31,10.0,West,11.5,-,N/A,,Overcast,270,2013-03-27 00:15:00
7:35 PM,37.4,27.3,67,30.31,10.0,WNW,10.4,-,N/A,,Overcast,290,2013-03-27 00:35:00
7:55 PM,36.3,26.8,68,30.32,10.0,West,9.2,-,N/A,,Mostly Cloudy,280,2013-03-27 00:55:00
8:15 PM,35.2,26.6,71,30.32,10.0,West,6.9,-,N/A,,Scattered Clouds,280,2013-03-27 01:15:00
8:35 PM,34.7,27.1,74,30.32,10.0,West,6.9,-,N/A,,Scattered Clouds,280,2013-03-27 01:35:00
8:55 PM,35.6,27.1,71,30.33,10.0,West,5.8,-,N/A,,Overcast,270,2013-03-27 01:55:00
9:15 PM,35.4,27.5,73,30.33,10.0,West,5.8,-,N/A,,Overcast,260,2013-03-27 02:15:00
9:35 PM,35.6,27.7,73,30.33,10.0,West,5.8,-,N/A,,Overcast,260,2013-03-27 02:35:00
9:55 PM,35.6,28.0,74,30.33,10.0,WSW,5.8,-,N/A,,Overcast,250,2013-03-27 02:55:00
10:15 PM,35.6,28.2,75,30.33,10.0,West,9.2,-,N/A,,Overcast,270,2013-03-27 03:15:00
10:35 PM,35.8,28.0,73,30.33,10.0,West,6.9,-,N/A,,Overcast,260,2013-03-27 03:35:00
10:55 PM,36.0,27.9,72,30.33,10.0,WSW,6.9,-,N/A,,Overcast,250,2013-03-27 03:55:00
11:15 PM,35.8,28.2,74,30.34,10.0,WSW,6.9,-,N/A,,Overcast,250,2013-03-27 04:15:00
11:35 PM,35.6,28.0,74,30.34,10.0,WSW,5.8,-,N/A,,Overcast,240,2013-03-27 04:35:00
11:55 PM,35.6,28.2,75,30.33,10.0,WSW,8.1,-,N/A,,Overcast,250,2013-03-27 04:55:00